Content
SEND FEEDBACK

Daily
Averages
Monthly
Summary
Germany

LUBECK, GERMANY


Home > Europe > Germany
Elevation: 56 feet     Latitude: 54 00N     Longitude: 011 12E

WEATHER
 
SELECT A DAY
Number of Records: 58,064;   Date Range: 7/3/96 - 7/21/14
 
SHARE

PRINT THIS DATA

[ ← Previous Day ]
WEATHER ALMANAC - JANUARY 21, 2013
[ Next Day → ]
[ °C ]   °F
Weather ElementAverageHighLow
Temperature25.6 °F28.4 °F (1:20 pm)24.8 °F (6:50 am)
Dewpoint14.4 °F19.4 °F (7:20 pm)1.4 °F (2:20 pm)
Humidity64 %80 % (7:20 pm)34 % (2:20 pm)
Barometer29.70 in29.71 in (10:50 am)29.68 in (6:50 am)
Wind Speed17.6 mph23 mph (10:20 am)
Wind Gust31.1 mph (3:20 pm)
Weather ElementAverage
Wind DirectionENE (80 °)

Weather ElementTotal
Precipitation---
Heating Degree Days38.4 (Base 65)
Averaged from 27 records on January 21, 2013
WEATHER CONDITIONS BREAKOUT
WIND DIRECTION BREAKOUT
WEATHER BY HOUR - JANUARY 21, 2013
[ °C ]   °F
Local TimeTemperatureDewpointHumidityBarometerVisibilityWind DirectionWind SpeedGust SpeedPrecipitationEventsConditions
6:50 AM24.8 °F17.6 °F74 %29.68 inEast (90°)15.0 mphClear
7:20 AM24.8 °F17.6 °F74 %29.68 inEast (80°)16.1 mphClear
7:50 AM24.8 °F17.6 °F74 %29.68 inEast (80°)16.1 mphClear
8:20 AM24.8 °F17.6 °F74 %29.68 inEast (80°)16.1 mphClear
8:50 AM24.8 °F15.8 °F69 %29.68 inEast (80°)19.6 mphClear
9:20 AM24.8 °F15.8 °F69 %29.68 inEast (80°)19.6 mphClear
9:50 AM26.6 °F12.2 °F55 %29.68 inEast (80°)20.7 mphClear
10:20 AM26.6 °F10.4 °F51 %29.68 inEast (90°)23.0 mphClear
10:50 AM26.6 °F12.2 °F55 %29.71 inEast (90°)17.3 mphClear
11:20 AM26.6 °F14.0 °F59 %29.71 inEast (90°)17.3 mphClear
11:50 AM26.6 °F15.8 °F64 %29.71 inEast (90°)17.3 mphClear
12:20 PM26.6 °F15.8 °F64 %29.71 inEast (80°)13.8 mphClear
12:50 PM26.6 °F15.8 °F64 %29.68 inEast (90°)17.3 mphClear
1:20 PM28.4 °F10.4 °F47 %29.68 inEast (80°)21.9 mphClear
1:50 PM26.6 °F8.6 °F47 %29.68 inEast (80°)23.0 mphClear
2:20 PM26.6 °F1.4 °F34 %29.68 inEast (80°)23.0 mphClear
2:50 PM26.6 °F3.2 °F37 %29.68 inEast (80°)21.9 mphClear
3:20 PM24.8 °F10.4 °F54 %29.71 inEast (80°)18.4 mph31.1 mphClear
3:50 PM24.8 °F14.0 °F64 %29.71 inENE (70°)18.4 mphClear
4:20 PM24.8 °F15.8 °F69 %29.71 inENE (70°)18.4 mphClear
4:50 PM24.8 °F17.6 °F74 %29.71 inENE (70°)15.0 mphClear
5:20 PM24.8 °F17.6 °F74 %29.71 inENE (70°)15.0 mphClear
5:50 PM24.8 °F17.6 °F74 %29.71 inENE (70°)15.0 mphClear
6:20 PM24.8 °F17.6 °F74 %29.71 inEast (80°)12.7 mphClear
6:50 PM24.8 °F17.6 °F74 %29.71 inENE (70°)11.5 mphClear
7:20 PM24.8 °F19.4 °F80 %29.71 inEast (80°)16.1 mphClear
7:50 PM24.8 °F19.4 °F80 %29.71 inEast (80°)16.1 mphClear
Hourly data recorded from EDHL, located miles away from Lubeck, Germany







STORIES FROM OUR PARTNERS